Location: Recife
(8.0585°S, 34.8848°W)
Time: 09:58:18
(UTC-03:00)

Courier 1B Rocket - Pass Details

Date: 21 April 2026
Orbit: 920 x 1201 km, 28.2° (Epoch: 13 May)

Event Time Altitude Azimuth Distance (km) Brightness Sun altitude
Rises 00:30:27 0° 320° (NW) 3,632 - -71.9°
Reaches altitude 10° 00:33:26 10° 330° (NNW) 2,654 - -71.1°
Maximum altitude 00:38:57 31° 30° (NNE) 1,563 - -69.8°
Drops below altitude 10° 00:44:21 10° 91° (E) 2,604 - -68.5°
Sets 00:47:14 0° 101° (E) 3,553 - -67.8°
